Regional Weather Roundup
Issued by NWS

Home | Current Version | Previous Version | Graphics & Text | Print | Product List | Glossary On
Versions: 1 2 3 4 5 6 7 8 9 10 11 12 13 14 15 16 17 18 19 20 21 22 23 24 25 26 27 28 29 30 31 32 33 34 35 36 37 38 39 40 41 42 43 44 45 46 47 48 49 50
000
ASUS43 KLOT 100508
RWRIL

ILLINOIS REGIONAL WEATHER ROUNDUP
NATIONAL WEATHER SERVICE CHICAGO/ROMEOVILLE IL
1100 PM CST FRI DEC 09 2016

NOTE: "FAIR" INDICATES FEW OR NO CLOUDS BELOW 12,000 FEET WITH NO
SIGNIFICANT WEATHER AND/OR OBSTRUCTIONS TO VISIBILITY.

* THESE STATIONS ARE NOT UNDER NWS QUALITY CONTROL. THEY ALSO MAY NOT
  REPORT WEATHER SUCH AS PRECIPITATION OR FOG.

ILZ001-002-007-009-015-016-024-100600-
NORTHWEST ILLINOIS

CITY           SKY/WX    TMP DP  RH WIND       PRES   REMARKS
MOLINE         MOCLDY    20  13  74 SW3       30.54S
STERLING*      MOCLDY    19  14  81 W6        30.54R WCI  11
SAVANNA*       PTCLDY    19  13  77 W6        30.53S WCI  11
$$

ILZ003-004-008-010-011-017-018-100600-
NORTH CENTRAL ILLINOIS

CITY           SKY/WX    TMP DP  RH WIND       PRES   REMARKS
ROCKFORD       CLOUDY    17  11  77 W8        30.52S WCI   7
FREEPORT*      MOCLDY    16  12  82 W8        30.52R WCI   6
ROCHELLE*      MOCLDY    10   8  89 CALM      30.52S
DE KALB*       PTCLDY    17  11  77 W10       30.51R WCI   5
$$

ILZ005-006-012>014-019>023-100600-
NORTHEAST ILLINOIS

CITY           SKY/WX    TMP DP  RH WIND       PRES   REMARKS
CHICAGO-OHARE  MOCLDY    18  12  77 W6        30.50S WCI  10
CHICAGO-MIDWAY MOCLDY    20  11  68 SW6       30.52S WCI  12
AURORA         CLEAR     13   9  84 SW5       30.52S WCI   5
LANSING*       PTCLDY    19  15  84 W6        30.52F WCI  11
JOLIET*        CLOUDY    20  14  77 CALM      30.53S
WAUKEGAN       PTCLDY    17  11  77 SW5       30.48S WCI  10
DUPAGE AIRPORT CLEAR     16  10  77 W8        30.50S WCI   5
KANKAKEE*      CLOUDY    23  14  69 CALM      30.54S
WHEELING       CLEAR     19  11  70 SW5       30.52S WCI  12
MORRIS*        MOCLDY    16  12  84 CALM      30.53S
ROMEOVILLE*    PTCLDY    17  15  90 W6        30.52S WCI   9
NORTHERLY ISL    N/A     21  14  74 SW9         N/A  WCI  11
$$

LMZ740>746-100600-
SOUTHERN LAKE MICHIGAN

STATION/POSITION SKY/WX   TEMP    WIND        PRES    VSBY  WAVE
                          AIR SEA DIR/SP/G                  HT/PER
                          (F)     (DEG/KT/KT) (MB)    (MI)  (FT/S)
BURNHAM HARBOR             22     280/  8/ 10   N/A
CALUMET HARBOR             20     230/  8/ 10 1032.5F
BURNS HARBOR               22     230/  9/ 12 1033.5R
$$

ILZ025>027-034>036-040-047-049-050-058-095>099-100600-
WEST-CENTRAL ILLINOIS

CITY           SKY/WX    TMP DP  RH WIND       PRES   REMARKS
QUINCY         CLOUDY    22  16  78 CALM      30.56S
GALESBURG*     CLOUDY    20  16  84 CALM      30.54F
MACOMB*        CLOUDY    22  15  77 W3        30.58S
JACKSONVILLE*  CLOUDY    22  16  75 CALM      30.57F
PITTSFIELD*    CLOUDY    23  16  73 CALM      30.57F
$$

ILZ028>032-037-038-041>044-048-051>054-059>061-100600-
CENTRAL ILLINOIS

CITY           SKY/WX    TMP DP  RH WIND       PRES   REMARKS
PONTIAC        CLOUDY    24  15  69 W7        30.55S WCI  16
BLOOMINGTON    CLOUDY    21  15  78 W7        30.54R WCI  12
DECATUR        CLOUDY    22  13  68 CALM      30.56S
PEORIA         CLOUDY    22  14  71 W6        30.56S WCI  14
LACON*         CLOUDY    21  12  68 CALM      30.55S
LINCOLN*       CLOUDY    23  15  69 W3        30.57S
SPRINGFIELD    CLOUDY    24  16  71 CALM      30.57F
TAYLORVILLE    CLOUDY    23  16  75 CALM      30.58S
$$

ILZ033-039-045-046-055>057-062-063-100600-
EAST-CENTRAL ILLINOIS

CITY           SKY/WX    TMP DP  RH WIND       PRES   REMARKS
CHAMPAIGN      CLOUDY    22  14  71 W7        30.55S WCI  13
RANTOUL*       CLOUDY    24  17  75 W8        30.55R WCI  14
MATTOON        CLOUDY    23  14  68 NW7       30.55S WCI  15
PARIS*         CLOUDY    21  17  84 W6        30.56F WCI  14
$$

ILZ079-100>102-100600-
SOUTHWEST ILLINOIS

CITY           SKY/WX    TMP DP  RH WIND       PRES   REMARKS
ALTON          PTCLDY    20  18  89 CALM      30.59S
BELLEVILLE     CLEAR     20  15  81 CALM      30.59R
CAHOKIA*       PTCLDY    20  15  81 CALM      30.60S
SPARTA*        PTCLDY    19  16  88 CALM      30.60S
$$

ILZ064>066-069>071-074>076-080>082-084>086-088>090-092>094-100600-
SOUTH-CENTRAL ILLINOIS

CITY           SKY/WX    TMP DP  RH WIND       PRES   REMARKS
CARBONDALE     CLEAR     17  15  92 CALM      30.61R
CAIRO*         CLEAR     19  16  88 CALM      30.62R
EFFINGHAM*     CLOUDY    23  19  83 SW3       30.60S
MARION         CLEAR     19  16  86 CALM      30.61S
CENTRALIA*     CLOUDY    21  19  93 CALM      30.59S
SALEM*         CLOUDY    22  17  82 CALM      30.59F
METROPOLIS*    CLEAR     20  15  83 CALM      30.62S
$$

ILZ067-068-072-073-078-083-087-091-100600-
SOUTHEAST ILLINOIS

CITY           SKY/WX    TMP DP  RH WIND       PRES   REMARKS
LAWRENCEVILLE  CLOUDY    24  18  77 W3        30.60R
FLORA*         CLOUDY    23  19  83 CALM      30.61R
FAIRFIELD*     PTCLDY    18  16  90 CALM      30.60R
HARRISBURG*    CLEAR     20  17  88 CALM      30.62R
ROBINSON*      CLOUDY    23  18  81 W7        30.60R WCI  15
CARMI*         CLEAR     20  18  93 CALM      30.60S
$$

ABBREVIATIONS USED IN REMARKS
   TC - TEMPERATURE IN CELSIUS
  WCI - WIND CHILL INDEX
   HX - HEAT INDEX
  VSB - VISIBILITY
$$





USA.gov is the U.S. government's official web portal to all federal, state and local government web resources and services.